Flag for Sweden Weather past 2 weeks in Växjö, Sweden

Now
46 °F

Light rain. Overcast.


Feels Like: 41 °F
Forecast: 48 / 57 °F
Wind: 10 mph from South

Location: Vaxjo Airport

Current Time: Sep 24, 2014 at 4:46:36 AM

Latest Report: Sep 24, 2014 at 4:20 AM


Visibility: N/A

Pressure: 29.83 "Hg

Humidity: 93%

Dew point: 45 °F

Location of VäxjöLocation

Historic Weather in Växjö — Graph

°F

Växjö temperature yesterday

Maximum temperature yesterday: 52 °F (at 4:50 PM)
Minimum temperature yesterday: 34 °F (at 6:20 AM)
Average temperature yesterday: 43 °F

Past Weeks' High & Low Weather Summary

 TemperatureHumidityPressure
High72 °F (Sep 19, 4:20 PM)100% (Sep 10, 12:20 AM)30.39 "Hg (Sep 10, 12:20 AM)
Low34 °F (Sep 23, 6:20 AM)40% (Sep 19, 3:20 PM)29.56 "Hg (Sep 22, 12:20 AM)
Average55 °F83%30.09 "Hg
* Reported Sep 9 3:20 AM — Sep 24 3:20 AM, Växjö, Weather by CustomWeather, © 2014

Note: Actual official high and low records may vary slightly from our data, if they occured in-between our weather recording intervals... More about our weather records

Advertising

Växjö weather history for previous 24 hours

 ConditionsComfort  
Time TempWeatherWind HumidityBarometerVisibility
3:20 AM
Sep 24
45 °FPartly cloudy.9 mph87%29.86 "HgN/A
2:50 AM45 °FDrizzle. Overcast.9 mph76%29.89 "HgN/A
2:20 AM45 °FMostly cloudy.8 mph66%29.89 "HgN/A
1:50 AM45 °FClear.7 mph66%29.89 "Hg10 mi
1:20 AM45 °FClear.8 mph71%29.92 "Hg10 mi
12:50 AM45 °FClear.8 mph71%29.92 "Hg10 mi
12:20 AM45 °FClear.8 mph71%29.92 "Hg10 mi
11:50 PM
Sep 23
45 °FClear.8 mph71%29.95 "Hg10 mi
11:20 PM46 °FClear.8 mph66%29.95 "Hg10 mi
10:50 PM45 °FClear.5 mph71%29.95 "Hg10 mi
10:20 PM45 °FClear.3 mph71%29.95 "Hg10 mi
9:50 PM45 °FClear.5 mph66%29.98 "Hg10 mi
9:20 PM45 °FClear.5 mph66%29.98 "Hg10 mi
8:50 PM43 °FClear.3 mph87%29.98 "Hg10 mi
8:20 PM43 °FClear.3 mph87%29.98 "Hg10 mi
7:50 PM43 °FSunny.3 mph81%29.98 "Hg10 mi
7:20 PM45 °FSunny.3 mph81%29.98 "Hg10 mi
6:50 PM46 °FSunny.3 mph71%29.98 "Hg10 mi
6:20 PM48 °FSunny.3 mph66%30.01 "Hg10 mi
5:50 PM48 °FPassing clouds.3 mph58%30.01 "HgN/A
5:20 PM50 °FPassing clouds.5 mph54%30.01 "HgN/A
4:50 PM52 °FPassing clouds.6 mph47%30.01 "HgN/A
4:20 PM50 °FPassing clouds.8 mph50%30.01 "HgN/A
3:50 PM50 °FPassing clouds.8 mph50%30.01 "HgN/A
3:20 PM50 °FScattered clouds.8 mph50%30.01 "HgN/A
2:50 PM50 °FPassing clouds.9 mph50%30.04 "HgN/A
2:20 PM50 °FSunny.8 mph50%30.04 "Hg10 mi
1:50 PM48 °FPassing clouds.9 mph54%30.04 "HgN/A
1:20 PM50 °FPassing clouds.9 mph58%30.01 "HgN/A
12:20 PM48 °FPassing clouds.10 mph54%30.01 "HgN/A
11:50 AM48 °FSunny.12 mph54%30.01 "Hg10 mi
11:20 AM46 °FPassing clouds.10 mph62%30.01 "HgN/A
10:50 AM46 °FSunny.10 mph57%30.04 "Hg10 mi
10:20 AM45 °FSunny.10 mph61%30.01 "Hg10 mi
9:50 AM43 °FSunny.10 mph71%30.01 "Hg10 mi
9:20 AM41 °FSunny.9 mph76%30.01 "Hg10 mi
8:50 AM37 °FSunny.7 mph81%30.01 "Hg10 mi
8:20 AM36 °FSunny.6 mph87%30.01 "Hg10 mi
7:50 AM36 °FPassing clouds.5 mph87%30.01 "HgN/A
7:20 AM34 °FClear.6 mph87%29.98 "Hg10 mi
6:50 AM34 °FClear.5 mph87%29.98 "Hg10 mi
6:20 AM34 °FClear.8 mph87%29.98 "Hg10 mi
5:50 AM36 °FClear.8 mph81%29.98 "Hg10 mi
5:20 AM36 °FChilly.8 mph81%29.95 "HgN/A
4:50 AM36 °FChilly.8 mph81%29.95 "HgN/A
4:20 AM37 °FChilly.9 mph81%29.95 "HgN/A
Weather by CustomWeather, © 2014

See weather overviewHow to use our weather pages